| time (UTC) | temp F | wind direction | speed MPH | gust MPH | rain 1hr in | rain 24hr in | rain mn in | humidity % | barometer mb |
| 20260507123005 | 37 | 266 | 0.0 | 1.0 | 0.00 | 0.00 | 0.00 | 92 | 1016.7 |
| 20260507121502 | 34 | 266 | 0.0 | 0.0 | 0.00 | 0.00 | 0.00 | 94 | 1016.4 |
| 20260507120105 | 33 | 266 | 0.0 | 0.0 | 0.00 | 0.00 | 0.00 | 94 | 1016.3 |
| 20260507114612 | 32 | 266 | 0.0 | 0.0 | 0.00 | 0.00 | 0.00 | 93 | 1016.3 |
| 20260507113057 | 31 | 266 | 0.0 | 0.0 | 0.00 | 0.00 | 0.00 | 93 | 1016.2 |
| 20260507111558 | 30 | 266 | 0.0 | 0.0 | 0.00 | 0.00 | 0.00 | 92 | 1016.1 |
| 20260507110059 | 30 | 271 | 0.0 | 0.0 | 0.00 | 0.00 | 0.00 | 92 | 1016.1 |
| 20260507104551 | 30 | 271 | 0.0 | 0.0 | 0.00 | 0.00 | 0.00 | 91 | 1016.1 |
| 20260507103050 | 30 | 270 | 0.0 | 0.0 | 0.00 | 0.00 | 0.00 | 90 | 1016.2 |
| 20260507101557 | 31 | 270 | 0.0 | 0.0 | 0.00 | 0.00 | 0.00 | 90 | 1016.0 |
| 20260507100046 | 31 | 271 | 0.0 | 0.0 | 0.00 | 0.00 | 0.00 | 90 | 1016.2 |
| 20260507094551 | 32 | 271 | 0.0 | 0.0 | 0.00 | 0.00 | 0.00 | 90 | 1016.2 |
| 20260507093043 | 32 | 270 | 0.0 | 0.0 | 0.00 | 0.00 | 0.00 | 90 | 1016.2 |
| 20260507091546 | 32 | 271 | 0.0 | 0.0 | 0.00 | 0.00 | 0.00 | 89 | 1016.4 |
| 20260507090045 | 32 | 270 | 0.0 | 0.0 | 0.00 | 0.00 | 0.00 | 88 | 1016.3 |
| 20260507084542 | 32 | 271 | 0.0 | 0.0 | 0.00 | 0.00 | 0.00 | 87 | 1016.4 |
| 20260507083039 | 33 | 270 | 0.0 | 0.0 | 0.00 | 0.00 | 0.00 | 87 | 1016.3 |
| 20260507081638 | 33 | 270 | 0.0 | 0.0 | 0.00 | 0.00 | 0.00 | 88 | 1016.2 |
| 20260507080038 | 33 | 270 | 0.0 | 0.0 | 0.00 | 0.00 | 0.00 | 87 | 1016.2 |
| 20260507074535 | 33 | 271 | 0.0 | 0.0 | 0.00 | 0.00 | 0.00 | 87 | 1016.2 |
| 20260507073033 | 33 | 270 | 0.0 | 0.0 | 0.00 | 0.00 | 0.00 | 86 | 1016.3 |
| 20260507071535 | 34 | 270 | 0.0 | 0.0 | 0.00 | 0.00 | 0.00 | 86 | 1016.3 |
| 20260507070033 | 34 | 271 | 0.0 | 0.0 | 0.00 | 0.00 | 0.00 | 85 | 1016.4 |
| 20260507064537 | 34 | 271 | 0.0 | 0.0 | 0.00 | 0.00 | 0.00 | 84 | 1016.6 |
| 20260507063027 | 35 | 270 | 0.0 | 0.0 | 0.00 | 0.00 | 0.00 | 83 | 1016.6 |
| 20260507061532 | 35 | 270 | 0.0 | 0.0 | 0.00 | 0.00 | 0.00 | 83 | 1016.6 |
| 20260507060023 | 35 | 271 | 0.0 | 0.0 | 0.00 | 0.00 | 0.00 | 83 | 1016.7 |
| 20260507054522 | 36 | 271 | 0.0 | 0.0 | 0.00 | 0.00 | 0.00 | 82 | 1016.6 |
| 20260507053023 | 36 | 271 | 0.0 | 0.0 | 0.00 | 0.00 | 0.00 | 80 | 1016.7 |
| 20260507051518 | 36 | 270 | 0.0 | 0.0 | 0.00 | 0.00 | 0.00 | 79 | 1016.7 |
| 20260507050017 | 37 | 271 | 0.0 | 0.0 | 0.00 | 0.00 | 0.00 | 77 | 1016.7 |
| 20260507044516 | 37 | 271 | 0.0 | 0.0 | 0.00 | 0.00 | 0.00 | 76 | 1016.5 |
| 20260507043011 | 38 | 270 | 0.0 | 0.0 | 0.00 | 0.00 | 0.00 | 75 | 1016.5 |
| 20260507041511 | 39 | 271 | 0.0 | 0.0 | 0.00 | 0.00 | 0.00 | 74 | 1016.5 |
| 20260507040013 | 39 | 271 | 0.0 | 0.0 | 0.00 | 0.00 | 0.00 | 72 | 1016.6 |
| 20260507034511 | 39 | 270 | 0.0 | 0.0 | 0.00 | 0.00 | 0.00 | 70 | 1016.6 |
| 20260507033009 | 40 | 270 | 0.0 | 0.0 | 0.00 | 0.00 | 0.00 | 67 | 1016.7 |
| 20260507031508 | 41 | 270 | 0.0 | 0.0 | 0.00 | 0.00 | 0.00 | 65 | 1016.7 |
| 20260507030007 | 42 | 270 | 0.0 | 0.0 | 0.00 | 0.00 | 0.00 | 64 | 1016.5 |
| 20260507024506 | 42 | 270 | 0.0 | 0.0 | 0.00 | 0.00 | 0.00 | 63 | 1016.5 |
| 20260507023004 | 43 | 270 | 0.0 | 0.0 | 0.00 | 0.00 | 0.00 | 61 | 1016.3 |
| 20260507021502 | 44 | 270 | 0.0 | 0.0 | 0.00 | 0.00 | 0.00 | 59 | 1016.2 |
| 20260507020000 | 45 | 271 | 0.0 | 1.0 | 0.00 | 0.00 | 0.00 | 58 | 1015.9 |
| 20260507014600 | 46 | 271 | 0.0 | 3.0 | 0.00 | 0.00 | 0.00 | 56 | 1015.8 |
| 20260507013116 | 47 | 271 | 1.0 | 3.0 | 0.00 | 0.00 | 0.00 | 53 | 1015.6 |
| 20260507011559 | 48 | 270 | 1.0 | 4.0 | 0.00 | 0.00 | 0.00 | 52 | 1015.7 |
| 20260507010057 | 48 | 288 | 2.0 | 5.0 | 0.00 | 0.00 | 0.00 | 50 | 1015.7 |
| 20260507004558 | 49 | 328 | 4.0 | 11.0 | 0.00 | 0.00 | 0.00 | 49 | 1015.6 |
| 20260507003057 | 50 | 292 | 4.0 | 9.0 | 0.00 | 0.00 | 0.00 | 48 | 1015.4 |
| 20260507001610 | 50 | 338 | 4.0 | 12.0 | 0.00 | 0.00 | 0.00 | 47 | 1015.5 |
| 20260507000053 | 51 | 309 | 2.0 | 9.0 | 0.00 | 0.00 | 0.00 | 48 | 1015.2 |
| 20260506234559 | 52 | 304 | 3.0 | 12.0 | 0.00 | 0.00 | 0.00 | 48 | 1015.1 |
| 20260506233053 | 52 | 305 | 3.0 | 14.0 | 0.00 | 0.00 | 0.00 | 48 | 1015.0 |
| 20260506231553 | 53 | 323 | 5.0 | 12.0 | 0.00 | 0.00 | 0.00 | 46 | 1015.0 |
| 20260506230050 | 53 | 324 | 3.0 | 11.0 | 0.00 | 0.00 | 0.00 | 46 | 1014.8 |
| 20260506224604 | 54 | 298 | 4.0 | 11.0 | 0.00 | 0.00 | 0.00 | 46 | 1014.5 |
| 20260506223054 | 53 | 327 | 5.0 | 11.0 | 0.00 | 0.00 | 0.00 | 45 | 1014.3 |
| 20260506221548 | 54 | 267 | 5.0 | 11.0 | 0.00 | 0.00 | 0.00 | 45 | 1014.5 |
| 20260506214549 | 54 | 329 | 4.0 | 15.0 | 0.00 | 0.00 | 0.00 | 44 | 1014.2 |
| 20260506213046 | 56 | 281 | 4.0 | 11.0 | 0.00 | 0.00 | 0.00 | 44 | 1014.1 |
| 20260506211553 | 54 | 299 | 5.0 | 9.0 | 0.00 | 0.00 | 0.00 | 45 | 1014.1 |
| 20260506210044 | 56 | 311 | 5.0 | 12.0 | 0.00 | 0.00 | 0.00 | 44 | 1014.0 |
| 20260506204544 | 56 | 291 | 3.0 | 9.0 | 0.00 | 0.00 | 0.00 | 44 | 1014.1 |
| 20260506203043 | 56 | 296 | 4.0 | 12.0 | 0.00 | 0.00 | 0.00 | 43 | 1014.1 |
| 20260506201543 | 56 | 292 | 5.0 | 11.0 | 0.00 | 0.00 | 0.00 | 43 | 1014.4 |
| 20260506200042 | 57 | 287 | 3.0 | 9.0 | 0.00 | 0.00 | 0.00 | 45 | 1014.4 |
| 20260506194545 | 56 | 315 | 5.0 | 12.0 | 0.00 | 0.00 | 0.00 | 41 | 1014.7 |
| 20260506193047 | 57 | 324 | 4.0 | 9.0 | 0.00 | 0.00 | 0.00 | 41 | 1014.7 |
| 20260506191540 | 57 | 287 | 6.0 | 12.0 | 0.00 | 0.00 | 0.00 | 40 | 1014.6 |
| 20260506190039 | 57 | 327 | 3.0 | 8.0 | 0.00 | 0.00 | 0.00 | 45 | 1014.5 |
| 20260506184539 | 56 | 289 | 2.0 | 8.0 | 0.00 | 0.00 | 0.00 | 42 | 1014.5 |
| 20260506183038 | 56 | 310 | 2.0 | 5.0 | 0.00 | 0.00 | 0.00 | 44 | 1014.5 |
| 20260506181536 | 55 | 297 | 3.0 | 9.0 | 0.00 | 0.00 | 0.00 | 49 | 1014.6 |
| 20260506180032 | 54 | 290 | 2.0 | 9.0 | 0.00 | 0.00 | 0.00 | 46 | 1014.7 |
| 20260506174534 | 54 | 304 | 3.0 | 7.0 | 0.00 | 0.00 | 0.00 | 49 | 1014.7 |
| 20260506173038 | 53 | 263 | 1.0 | 7.0 | 0.00 | 0.00 | 0.00 | 48 | 1014.8 |
| 20260506171530 | 54 | 271 | 2.0 | 9.0 | 0.00 | 0.00 | 0.00 | 45 | 1014.9 |
| 20260506170029 | 53 | 332 | 3.0 | 12.0 | 0.00 | 0.00 | 0.00 | 47 | 1014.9 |
| 20260506164529 | 54 | 225 | 1.0 | 9.0 | 0.00 | 0.00 | 0.00 | 47 | 1014.9 |
| 20260506163027 | 54 | 258 | 0.0 | 6.0 | 0.00 | 0.00 | 0.00 | 52 | 1014.9 |
| 20260506161528 | 55 | 315 | 1.0 | 6.0 | 0.00 | 0.00 | 0.00 | 48 | 1014.8 |
| 20260506160037 | 53 | 260 | 0.0 | 5.0 | 0.00 | 0.00 | 0.00 | 52 | 1014.8 |
| 20260506154524 | 53 | 342 | 2.0 | 8.0 | 0.00 | 0.00 | 0.00 | 48 | 1015.0 |
| 20260506153020 | 52 | 330 | 3.0 | 5.0 | 0.00 | 0.00 | 0.00 | 49 | 1014.9 |
| 20260506151518 | 51 | 309 | 2.0 | 5.0 | 0.00 | 0.00 | 0.00 | 50 | 1014.9 |
| 20260506150016 | 52 | 311 | 3.0 | 6.0 | 0.00 | 0.00 | 0.00 | 49 | 1015.0 |
| 20260506144515 | 52 | 312 | 2.0 | 6.0 | 0.00 | 0.00 | 0.00 | 49 | 1015.0 |
| 20260506143013 | 52 | 191 | 1.0 | 3.0 | 0.00 | 0.00 | 0.00 | 53 | 1015.1 |
| 20260506141511 | 52 | 182 | 0.0 | 3.0 | 0.00 | 0.00 | 0.00 | 58 | 1015.0 |
| 20260506140009 | 51 | 123 | 0.0 | 1.0 | 0.00 | 0.00 | 0.00 | 63 | 1015.0 |
| 20260506134504 | 49 | 121 | 0.0 | 4.0 | 0.00 | 0.00 | 0.00 | 65 | 1014.8 |
| 20260506133115 | 49 | 35 | 0.0 | 3.0 | 0.00 | 0.00 | 0.00 | 68 | 1014.5 |
| 20260506131604 | 47 | 27 | 0.0 | 0.0 | 0.00 | 0.00 | 0.00 | 73 | 1014.3 |
| 20260506130058 | 45 | 27 | 0.0 | 1.0 | 0.00 | 0.07 | 0.00 | 74 | 1014.2 |
| 20260506124559 | 44 | 334 | 0.0 | 0.0 | 0.00 | 0.07 | 0.00 | 80 | 1014.1 |